Temperature
15 15 15 15 15 15 15 15 15 15 15 15 15 15 15 15 15 15 15 15 15 14 14 15 15 15 15 15 15 15 15 15 15 15 15 15 15 15 15 15 15 15 15
15 15 15 15 15 15 15 15 15 15 15 15 15 15 15 15 15 15 15 15 15 14 14 14 14 14 14 14 15 15 15 15 15 14 15 14 14 15 15 15 15 15 15
15 15 15 15 15 15 15 15 15 15 15 15 15 15 15 15 14 14 14 14 14 14 14 14 14 14 14 14 14 14 14 14 14 14 14 14 14 14 14 14 14 15 15
15 15 15 15 15 15 15 15 15 15 15 14 14 14 14 14 14 14 14 14 14 14 14 14 14 14 14 14 14 14 14 14 14 14 14 14 14 14 14 14 14 14 14
15 14 14 15 15 15 15 15 14 15 14 14 14 14 14 14 14 14 14 14 14 14 14 14 14 14 14 14 14 14 14 14 14 14 14 14 14 14 14 14 14 14 14
14 14 14 14 14 14 14 14 14 14 14 14 14 14 14 14 14 14 14 14 14 14 14 14 14 14 14 14 14 14 14 14 14 14 14 14 14 14 14 14 14 14 14
14 14 14 14 14 14 14 14 14 14 14 14 14 14 14 14 14 14 14 14 14 14 14 14 13 13 13 14 14 14 14 14 14 14 13 13 13 13 13 13 13 13 13
14 14 14 14 14 14 14 14 14 14 14 14 14 14 14 13 14 13 13 13 13 13 13 13 13 13 13 13 14 14 14 14 13 13 13 13 13 13 13 13 13 13 13
14 14 14 14 14 14 14 14 14 14 14 13 13 13 13 13 13 13 13 13 13 13 13 13 13 13 13 13 13 13 13 13 13 13 13 13 13 13 13 13 13 13 13
14 14 14 13 13 13 13 13 13 13 13 13 13 13 13 13 13 13 13 13 13 13 13 13 13 13 13 13 13 13 13 13 13 13 13 13 13 13 13 13 13 13 13
14 14 13 13 13 13 13 13 13 13 13 13 13 13 13 13 13 13 13 13 13 13 13 12 12 13 13 13 13 13 13 13 13 13 13 13 13 13 13 12 12 12 12
14 13 13 13 13 13 13 13 13 13 13 13 13 13 13 13 13 13 12 12 12 13 12 12 12 12 13 13 13 13 13 13 13 13 13 13 13 12 12 12 12 12 12
13 13 13 13 13 13 13 13 13 13 13 13 13 13 12 12 12 12 12 12 12 12 12 12 12 12 12 12 12 12 12 12 12 12 12 12 12 12 12 12 12 12 12
13 13 13 13 13 13 12 12 13 13 12 12 12 12 12 12 12 12 12 12 12 12 12 12 12 12 12 12 12 12 12 12 12 12 12 12 12 12 12 12 12 12 12
13 13 13 13 13 12 12 12 12 12 12 12 12 12 12 12 12 12 12 12 12 11 12 12 12 12 12 12 12 12 12 12 12 12 12 12 12 12 12 12 12 12 12
13 13 13 12 12 12 12 12 12 12 12 12 12 12 12 12 11 12 11 11 11 11 11 11 12 12 12 11 12 12 12 11 12 12 12 12 12 11 12 12 11 11 11
12 12 12 12 12 12 12 12 12 12 12 12 11 11 11 11 11 11 11 11 11 11 11 11 11 11 11 11 11 11 11 11 11 11 11 11 11 11 11 11 11 11 11
12 12 12 12 12 11 11 11 11 11 11 11 11 11 11 11 11 11 11 11 11 11 11 11 11 11 11 11 11 11 11 11 11 11 11 11 11 11 11 11 11 11 11
11 11 11 11 11 11 11 11 11 11 11 11 11 11 11 11 11 11 11 11 11 10 10 10 10 10 10 10 10 10 11 11 11 11 11 11 11 11 11 11 11 11 11
11 11 11 11 11 11 11 11 11 11 11 11 10 10 10 10 10 10 10 10 10 10 10 10 10 10 10 10 10 10 10 10 10 11 11 10 11 10 10 11 11 11 10
10 10 10 10 10 10 10 10 10 10 10 10 10 10 10 10 10 10 10 10 10 10 10 10 10 10 10 10 10 10 10 10 10 10 10 10 10 10 10 10 10 10 10
10 10 10 10 9 9 9 9 9 9 10 10 10 9 9 9 9 9 9 9 9 9 9 9 9 9 9 9 9 9 9 9 9 10 10 10 10 10 10 10 10 10 10
9 9 9 9 9 9 9 9 9 9 9 9 9 9 9 9 9 9 9 9 9 9 9 9 9 9 9 9 9 9 9 9 9 9 9 9 9 9 9 9 9 9 9
9 9 9 9 8 8 8 8 8 8 8 8 9 9 9 9 9 9 9 9 9 8 8 8 8 8 8 8 8 8 8 8 8 8 8 8 9 9 9 9 9 9 9
8 8 8 8 8 8 8 8 8 8 8 8 8 8 8 8 8 8 8 8 8 8 8 8 8 8 8 8 8 8 8 8 8 8 8 8 8 8 9 9 9 9 9
8 7 7 7 7 7 7 7 7 7 7 8 8 8 8 8 8 8 8 8 8 8 7 7 8 8 8 8 8 7 8 7 7 7 8 8 8 7 8 8 8 8 8
Wind_Speed
2 3 3 4 4 4 4 4 4 5 5 5 5 5 5 5 6 6 6 8 8 9 9 8 8 9 9 9 9 8 7 7 8 9 9 9 9 8 8 8 8 8 8
3 3 3 3 3 3 3 4 3 3 3 3 4 4 4 5 5 6 6 7 8 8 8 7 7 8 8 8 9 9 8 8 8 9 9 9 8 8 8 8 8 8 7
3 3 2 2 2 3 4 4 4 3 3 3 3 3 4 4 4 5 5 6 7 8 8 8 7 7 7 7 8 8 9 8 8 9 9 8 8 8 9 8 8 8 8
3 3 2 2 2 3 3 3 2 3 3 2 2 2 3 3 4 4 5 5 5 6 7 8 8 7 7 7 7 7 7 7 7 8 8 8 9 9 9 8 8 8 8
3 3 2 2 3 3 3 2 2 2 2 2 2 2 3 3 3 3 4 4 4 4 5 6 7 7 7 7 7 6 6 6 7 7 8 8 8 9 9 8 8 8 8
3 3 2 2 3 3 2 2 3 2 2 2 2 3 3 3 3 3 3 3 4 4 5 5 6 6 7 7 7 6 5 5 6 6 6 7 7 7 7 7 7 7 7
2 3 2 2 2 2 1 2 2 3 2 1 2 3 3 3 3 3 3 3 4 4 5 5 5 5 4 5 6 5 4 4 4 4 5 6 6 6 6 6 6 6 6
2 2 2 2 2 2 2 2 2 2 1 2 2 2 2 3 3 2 2 3 3 4 4 5 4 4 5 4 5 5 3 3 3 3 4 4 4 4 4 5 5 5 5
2 2 2 2 1 2 1 1 2 3 1 1 1 2 2 2 1 2 2 2 3 3 3 3 4 4 4 4 4 5 4 2 2 2 3 3 4 4 5 5 5 5 5
1 1 1 1 1 1 1 1 1 1 2 1 1 1 1 2 2 1 2 2 3 3 3 3 3 4 4 4 4 5 5 2 1 1 1 2 3 3 3 3 3 3 3
1 1 1 1 1 1 1 1 1 1 1 2 1 1 1 1 1 2 1 2 2 2 2 3 3 3 3 3 3 4 4 4 2 1 0 1 2 2 2 2 2 2 3
1 1 1 0 1 0 1 1 2 2 1 1 1 2 2 2 2 2 2 1 1 2 2 2 2 3 3 3 3 4 3 3 3 2 2 1 1 1 2 2 2 2 2
1 1 0 1 0 1 1 1 1 1 1 1 2 2 2 2 2 2 2 1 1 1 2 1 2 2 3 3 3 3 3 2 2 3 2 0 1 1 1 1 1 2 2
2 1 0 0 1 1 0 1 1 1 1 1 1 1 1 1 1 2 3 3 1 1 1 2 2 2 3 3 3 3 2 2 2 2 1 1 0 1 1 1 1 2 1
1 1 1 1 0 0 1 1 1 1 1 1 1 1 1 1 1 1 2 3 3 2 2 2 2 2 3 2 3 2 2 2 2 1 1 1 1 0 1 2 2 1 1
0 1 1 0 0 0 1 1 1 0 1 1 1 1 1 1 1 1 1 1 2 3 2 2 3 2 2 2 3 2 2 2 2 2 2 1 1 1 1 2 2 2 2
0 0 0 0 0 0 0 1 1 1 1 1 0 1 1 1 0 1 1 1 1 2 3 2 2 2 1 2 3 3 2 2 2 3 2 2 2 3 2 2 2 2 3
0 1 0 0 0 0 0 1 2 1 1 1 1 1 1 1 1 0 1 1 2 2 3 2 1 1 1 2 2 2 2 2 2 3 3 3 4 3 3 3 3 3 3
1 1 1 1 0 0 1 1 2 2 2 2 1 1 1 1 1 1 1 1 1 2 2 2 2 1 1 1 1 2 2 2 3 3 3 3 3 3 3 3 4 4 4
1 1 1 0 1 1 0 0 1 1 1 1 2 2 2 2 2 2 1 1 1 1 2 2 1 1 1 1 0 1 2 2 2 2 2 2 2 2 3 4 4 5 5
1 0 1 1 1 0 0 0 0 1 1 1 1 2 3 3 3 3 2 2 2 2 2 2 1 1 1 0 1 1 1 2 2 1 2 2 2 2 2 3 5 5 6
1 1 1 0 1 1 1 0 0 0 0 1 2 2 3 2 3 3 3 3 4 3 3 3 2 2 3 3 2 1 1 1 2 1 1 2 1 2 3 3 4 5 6
1 1 0 1 1 2 2 1 0 0 0 1 2 2 2 2 2 1 2 2 2 3 4 4 4 4 4 4 3 2 2 2 3 2 1 2 1 3 3 4 5 5 5
1 1 1 1 1 3 3 1 0 0 0 1 2 2 2 2 2 2 2 1 1 2 3 3 4 5 5 4 5 5 4 2 1 1 1 2 2 3 3 3 4 4 5
1 1 1 1 1 3 3 2 1 0 1 2 2 1 1 2 3 1 2 2 1 2 3 3 3 3 3 4 4 2 2 1 2 2 1 1 2 2 2 2 3 3 4
1 1 1 1 2 2 3 2 1 1 1 2 2 2 3 3 3 1 3 3 3 3 2 1 2 3 2 1 4 4 4 3 2 2 2 2 1 0 2 2 2 2 3
Wind_Direction
68 62 57 56 55 65 70 69 72 76 71 65 64 66 57 51 46 43 35 48 58 61 62 64 64 61 60 59 61 59 62 67 71 77 81 85 90 89 89 92 91 92 90
93 85 70 62 58 66 82 86 82 81 72 68 57 56 51 47 45 44 38 37 45 54 57 58 60 58 54 55 58 57 67 72 72 77 81 82 84 82 85 87 87 86 87
98 96 86 72 61 74 87 88 75 75 76 68 51 45 47 40 39 38 36 33 34 39 43 49 52 55 55 55 56 60 68 70 71 77 81 82 82 83 83 83 83 83 83
98 95 86 67 65 80 86 92 80 71 61 61 50 32 36 31 27 29 33 32 34 31 32 41 43 45 48 51 52 62 73 75 75 78 79 80 81 82 83 82 81 81 83
100 102 88 72 77 83 78 85 69 81 78 64 55 41 31 29 13 25 27 27 32 33 33 34 36 36 39 44 48 65 77 82 83 82 81 81 83 83 82 78 78 79 81
108 114 102 88 90 83 69 72 76 67 81 77 65 45 20 20 23 25 17 24 32 36 38 35 30 23 26 34 44 59 74 84 91 90 88 87 87 86 84 80 79 77 76
97 110 103 102 94 93 96 97 94 83 62 59 69 31 11 22 30 23 20 33 30 27 36 33 29 23 11 21 31 48 68 76 94 97 97 97 95 92 90 86 83 80 76
79 116 117 116 105 101 89 91 100 104 63 53 102 91 13 356 1 14 23 36 23 26 30 29 29 24 19 20 19 31 48 64 87 101 106 107 105 100 93 90 87 81 78
58 86 107 117 116 122 142 156 137 129 135 43 69 131 145 222 307 343 9 22 20 24 13 20 24 17 17 18 14 21 32 57 70 96 120 115 113 111 101 94 88 81 77
41 60 111 123 131 135 157 188 140 131 138 145 62 63 136 162 160 321 342 3 17 19 7 7 5 8 16 20 16 15 16 22 38 74 120 133 129 124 121 115 104 91 88
24 21 86 115 122 156 178 173 146 133 147 158 163 149 114 75 127 160 245 317 351 349 358 353 357 360 7 16 17 13 12 18 20 19 113 129 135 128 115 140 135 122 106
359 5 47 108 172 179 190 183 172 157 168 163 169 164 166 172 192 168 191 234 278 302 337 350 353 343 349 357 7 9 8 16 18 16 26 61 94 115 98 102 135 137 125
312 307 347 351 320 242 197 163 162 166 172 178 195 204 199 202 174 164 161 183 234 291 317 325 324 331 339 347 344 353 356 358 2 355 357 31 114 130 117 118 137 151 148
239 260 235 291 291 263 189 144 141 175 155 192 214 207 200 221 186 175 168 158 161 301 319 293 312 324 330 334 332 339 349 350 336 334 356 6 257 200 193 184 169 155 140
240 216 191 196 317 354 139 138 139 177 145 189 215 213 220 239 207 196 174 166 162 193 246 273 284 307 318 326 328 334 324 329 321 306 299 313 328 256 227 215 189 170 169
262 115 117 163 194 214 160 146 155 182 141 202 193 174 219 251 225 197 191 183 169 173 207 241 244 279 317 325 333 331 300 300 302 288 262 249 250 249 251 226 205 206 204
162 156 170 141 170 333 194 162 193 186 179 227 205 181 233 222 183 236 194 170 171 160 197 252 258 285 312 324 335 345 326 314 304 281 259 246 245 234 230 223 215 212 209
176 178 147 121 150 171 230 191 200 208 198 221 239 203 251 224 212 222 188 194 196 185 181 225 275 278 280 292 316 334 336 319 301 284 267 256 246 235 226 219 204 188 184
81 71 86 99 219 220 213 232 208 212 219 225 224 215 231 168 228 257 201 200 209 190 174 189 240 256 293 321 341 330 329 336 325 314 284 266 252 235 220 211 206 203 202
108 95 110 195 251 246 229 236 199 197 222 248 243 233 227 197 204 209 199 202 186 169 166 173 217 265 283 309 7 325 321 324 309 324 327 310 293 261 238 225 218 215 212
70 127 96 28 341 322 270 85 173 222 207 256 277 263 245 219 215 196 189 180 168 170 174 178 204 244 270 301 250 245 260 299 296 298 325 310 315 323 298 253 234 226 222
63 60 56 29 342 315 319 308 124 202 228 230 276 288 278 253 251 230 219 190 170 171 186 192 200 218 235 231 225 227 233 300 286 282 282 282 282 269 292 277 243 231 231
109 55 337 15 322 292 305 297 115 122 222 259 263 277 287 283 262 246 225 203 203 188 179 184 197 218 221 220 203 209 217 221 240 250 210 263 254 252 276 278 258 233 230
195 221 272 290 303 312 326 320 172 145 236 263 255 245 261 279 261 219 179 178 219 235 215 201 214 225 222 208 202 209 215 229 271 260 171 234 257 261 282 281 268 240 226
212 241 263 269 279 298 317 327 19 224 244 263 268 257 253 261 283 226 165 188 243 277 271 242 240 252 243 215 186 159 160 173 246 249 206 217 251 268 270 265 273 259 234
216 221 286 274 259 276 301 304 327 221 256 266 279 276 267 270 278 233 187 193 227 254 265 288 303 308 300 248 196 189 191 193 214 237 218 204 229 275 290 277 278 287 259
Height
1530 1530 1530 1530 1530 1530 1530 1530 1531 1531 1531 1531 1531 1531 1530 1530 1530 1530 1529 1529 1529 1528 1528 1527 1527 1526 1526 1525 1524 1523 1523 1522 1522 1522 1521 1522 1522 1523 1524 1525 1526 1527 1528
1531 1531 1531 1531 1531 1531 1531 1532 1531 1532 1532 1532 1532 1532 1532 1532 1531 1531 1530 1530 1530 1529 1528 1528 1528 1527 1527 1526 1525 1524 1524 1523 1523 1523 1523 1523 1524 1525 1525 1526 1527 1527 1528
1532 1532 1532 1532 1532 1532 1532 1532 1532 1532 1532 1532 1532 1533 1533 1532 1532 1532 1532 1531 1531 1530 1530 1529 1528 1528 1527 1526 1526 1525 1525 1524 1524 1524 1524 1525 1525 1526 1526 1527 1527 1528 1528
1532 1532 1532 1532 1532 1532 1532 1532 1532 1532 1532 1533 1533 1533 1533 1533 1533 1533 1533 1532 1532 1531 1531 1530 1529 1528 1528 1527 1526 1525 1525 1525 1525 1525 1526 1526 1526 1527 1527 1528 1528 1528 1529
1532 1532 1532 1532 1532 1532 1532 1532 1532 1532 1533 1533 1533 1533 1533 1533 1533 1533 1533 1533 1532 1532 1531 1531 1530 1529 1528 1527 1526 1525 1526 1526 1526 1526 1527 1527 1527 1528 1528 1528 1529 1529 1529
1532 1532 1532 1532 1532 1532 1532 1532 1532 1532 1532 1533 1533 1533 1533 1533 1533 1533 1533 1533 1533 1532 1532 1531 1530 1529 1529 1528 1527 1526 1526 1526 1527 1527 1527 1528 1528 1529 1529 1529 1529 1530 1530
1531 1531 1531 1532 1531 1531 1531 1531 1532 1532 1532 1532 1533 1533 1533 1533 1533 1533 1533 1533 1533 1532 1532 1531 1531 1530 1529 1528 1527 1527 1527 1527 1527 1528 1528 1529 1529 1529 1530 1530 1530 1530 1530
1531 1531 1531 1531 1531 1531 1531 1531 1531 1531 1531 1531 1532 1532 1532 1533 1532 1532 1532 1533 1532 1532 1532 1531 1531 1530 1529 1529 1528 1528 1527 1527 1528 1528 1529 1529 1529 1530 1530 1530 1530 1530 1530
1530 1530 1530 1530 1530 1530 1530 1530 1530 1530 1530 1531 1531 1532 1531 1531 1531 1532 1531 1531 1531 1531 1531 1531 1531 1530 1530 1529 1528 1528 1528 1528 1528 1528 1529 1529 1529 1530 1530 1530 1530 1530 1530
1529 1529 1529 1529 1529 1529 1529 1530 1530 1530 1530 1530 1530 1530 1531 1530 1531 1530 1531 1530 1530 1530 1530 1530 1530 1530 1529 1529 1528 1528 1528 1528 1528 1528 1529 1529 1529 1529 1530 1530 1530 1530 1530
1528 1528 1528 1528 1528 1528 1528 1528 1528 1528 1529 1529 1529 1529 1529 1529 1529 1529 1529 1529 1529 1529 1529 1529 1529 1529 1529 1529 1528 1528 1528 1528 1528 1528 1528 1528 1529 1529 1529 1529 1529 1530 1530
1527 1526 1527 1527 1527 1527 1527 1527 1527 1527 1527 1527 1527 1527 1527 1527 1527 1527 1527 1527 1527 1527 1527 1528 1528 1528 1528 1528 1527 1527 1527 1527 1527 1527 1527 1527 1528 1528 1528 1529 1529 1529 1529
1525 1525 1525 1525 1525 1525 1525 1525 1526 1525 1525 1525 1525 1525 1525 1525 1525 1525 1525 1525 1525 1525 1525 1526 1526 1526 1526 1526 1526 1526 1526 1525 1526 1526 1527 1527 1527 1527 1527 1527 1528 1528 1528
1524 1524 1524 1524 1524 1524 1524 1524 1524 1524 1524 1523 1523 1523 1522 1523 1523 1523 1523 1524 1523 1523 1524 1524 1524 1524 1524 1524 1524 1524 1524 1524 1525 1525 1525 1525 1525 1526 1526 1526 1526 1527 1527
1522 1522 1522 1522 1522 1522 1522 1522 1521 1521 1521 1521 1521 1520 1520 1520 1520 1520 1521 1521 1522 1521 1521 1522 1522 1522 1522 1522 1522 1522 1522 1522 1523 1523 1523 1523 1524 1524 1524 1525 1525 1525 1525
1520 1520 1520 1520 1520 1520 1519 1519 1519 1519 1519 1519 1518 1518 1517 1517 1517 1518 1518 1518 1519 1519 1519 1519 1519 1520 1520 1520 1520 1520 1520 1520 1520 1521 1521 1521 1521 1522 1522 1522 1523 1523 1524
1519 1518 1518 1518 1517 1517 1517 1517 1517 1517 1517 1516 1516 1515 1515 1515 1515 1515 1515 1515 1516 1516 1516 1516 1517 1517 1517 1517 1517 1517 1517 1517 1518 1518 1518 1518 1519 1519 1519 1520 1520 1521 1521
1516 1516 1516 1515 1515 1515 1515 1514 1514 1514 1514 1513 1513 1513 1512 1512 1512 1512 1512 1512 1513 1513 1513 1513 1514 1514 1514 1514 1514 1514 1514 1514 1515 1515 1515 1515 1516 1516 1517 1517 1518 1518 1519
1514 1514 1513 1513 1513 1513 1512 1512 1511 1511 1511 1510 1510 1510 1509 1509 1509 1509 1509 1509 1510 1510 1510 1511 1511 1511 1511 1511 1511 1512 1511 1511 1512 1512 1512 1513 1513 1513 1514 1514 1515 1515 1516
1511 1511 1511 1510 1510 1510 1509 1509 1509 1508 1508 1507 1507 1507 1507 1506 1506 1506 1506 1506 1506 1507 1507 1508 1508 1508 1509 1508 1508 1508 1508 1509 1509 1509 1509 1509 1510 1510 1511 1511 1511 1512 1513
1508 1508 1508 1507 1507 1507 1506 1506 1505 1505 1505 1504 1504 1504 1504 1504 1503 1503 1503 1503 1504 1504 1504 1504 1505 1505 1505 1505 1505 1505 1505 1505 1505 1506 1506 1506 1506 1507 1507 1508 1508 1509 1509
1505 1505 1504 1504 1504 1503 1503 1503 1502 1502 1501 1501 1500 1500 1501 1500 1500 1500 1500 1501 1501 1501 1500 1501 1501 1502 1502 1503 1503 1503 1503 1502 1502 1504 1503 1503 1503 1503 1504 1504 1505 1505 1505
1502 1501 1501 1501 1500 1500 1500 1500 1499 1499 1498 1498 1497 1497 1497 1497 1497 1497 1497 1497 1497 1498 1498 1498 1498 1498 1499 1500 1500 1500 1500 1500 1500 1500 1500 1500 1500 1500 1501 1501 1501 1502 1502
1499 1498 1498 1498 1497 1497 1497 1497 1496 1495 1495 1495 1494 1494 1494 1494 1494 1494 1494 1494 1494 1494 1494 1495 1495 1495 1496 1497 1497 1497 1497 1497 1497 1497 1497 1497 1496 1497 1497 1497 1498 1498 1499
1496 1495 1495 1494 1494 1494 1494 1493 1493 1492 1492 1491 1491 1491 1491 1491 1491 1491 1491 1490 1490 1491 1491 1491 1492 1492 1492 1493 1493 1493 1493 1493 1492 1493 1493 1493 1493 1493 1493 1493 1494 1494 1495
1493 1492 1492 1491 1491 1491 1491 1490 1490 1489 1488 1488 1488 1488 1488 1487 1488 1487 1487 1487 1487 1487 1487 1487 1488 1488 1488 1488 1489 1489 1489 1489 1489 1489 1489 1490 1489 1490 1489 1490 1490 1491 1491